Regional Weather Roundup
Issued by NWS

Home | Current Version | Previous Version | Text Only | Print | Product List | Glossary Off
Versions: 1 2 3 4 5 6 7 8 9 10 11 12 13 14 15 16 17 18 19 20 21 22 23 24 25 26 27 28 29 30 31 32 33 34 35 36 37 38 39 40 41 42 43 44 45 46 47 48 49 50

000
ASUS45 KTFX 272304
RWRMT
MONTANA HOURLY WEATHER ROUNDUP
NATIONAL WEATHER SERVICE GREAT FALLS MT
504 PM MDT WED AUG 27 2014

NOTE: "FAIR" INDICATES FEW OR NO CLOUDS BELOW 12000 FEET WITH NO
SIGNIFICANT WEATHER AND/OR OBSTRUCTIONS TO VISIBILITY.

* THESE STATIONS ARE NOT UNDER NWS QUALITY CONTROL. THEY DO NOT
   REPORT WEATHER SUCH AS PRECIPITATION OR FOG.

MTZ001>007-043-280000-
WEST OF THE DIVIDE
CITY           SKY/WX    TMP DP  RH WIND       PRES   REMARKS
KALISPELL      PTCLDY    82  48  31 S10       30.00F
MISSOULA       CLEAR     84  46  26 CALM      30.04F
BUTTE          CLEAR     77  37  24 N5        30.17F
MULLAN PASS    CLEAR     70  39  32 VRB5      30.22F
* LINCOLN      N/A       80  44  28 SW7G14     N/A
* LOOKOUT PASS N/A       77  43  30 S4         N/A
* POLSON       N/A       86  46  25 SE4        N/A
* RONAN APT    CLEAR     84  46  26 N/A        N/A
* SEELEY LAKE  N/A       82  44  26 W5G14      N/A
* THOMP F APT  CLEAR     75  45  34 S11G19     N/A
$$

MTZ008-052>055-280000-
SOUTHWEST MONTANA
CITY           SKY/WX    TMP DP  RH WIND       PRES   REMARKS
BOZEMAN        CLEAR     81  43  26 NW7       30.10F
DILLON         CLEAR     79  39  24 CALM      30.13F
W YELLOWSTONE  MOCLDY    73  37  27 SW12      30.23S
* THREE FORKS  CLEAR     82  55  40 N/A        N/A   HI  81
* BOULDER HILL N/A       74  35  24 N6G13      N/A
* MONIDA PASS  N/A       70  40  34 NW12G17    N/A
* RAYNOLDS PAS N/A       70  65  84 NW4        N/A
* WHITEHALL    N/A       86  39  19 SW7G14     N/A
* WISE RIVER   N/A       78  39  25 NW7G13     N/A
$$

MTZ009>010-012-014-046-048-049-054-280000-
EAST SLOPES AND CENTRAL MONTANA
CITY           SKY/WX    TMP DP  RH WIND       PRES   REMARKS
CUT BANK       CLOUDY    81  45  28 W13       30.01S
GREAT FALLS    CLEAR     84  43  24 VRB7      30.01F
HELENA         CLEAR     84  43  24 SW12      30.04S
MALMSTROM AFB  CLEAR     82  43  25 VRB5      30.01F
* CONRAD       CLEAR     84  46  26 W8         N/A
* EAST GLACIER N/A       75  45  34 NW18G23    N/A
* MONARCH      N/A       74  35  24 W7G14      N/A
* PENDROY      N/A       81  40  23 NW6G12     N/A
* ROGERS PASS  N/A       75  43  32 SE12G20    N/A
* SAINT MARY   N/A       77  46  33 SW8G21     N/A
* SWEET GRASS  N/A       83  41  23 NW18G29    N/A
$$

MTZ011-013-016-021-035-040-045-047-050-051-280000-
NORTH CENTRAL MONTANA
CITY           SKY/WX    TMP DP  RH WIND       PRES   REMARKS
HAVRE          CLEAR     90  45  21 W16       29.91F
LEWISTOWN      CLEAR     82  43  25 NW10      30.05S
* CHESTER      N/A       86  41  20 NW9G17     N/A
* DENTON       N/A       82  38  21 W6G18      N/A
* GEYSER       N/A       81  40  23 W14        N/A
* JUDITH GAP   N/A       79  40  25 NW5G10     N/A
* LOMA         N/A       87  44  22 NW3G8      N/A
$$

MTZ017>020-022>027-061-062-280000-
NORTHEAST MONTANA
CITY           SKY/WX    TMP DP  RH WIND       PRES   REMARKS
GLASGOW        CLEAR     86  46  25 W13       29.91F
GLENDIVE       PTCLDY    81  50  34 SE12      29.99F
JORDAN         CLEAR     86  48  27 W10       29.95F
SIDNEY         CLEAR    N/A N/A N/A S7        29.97F
WOLF POINT     MOCLDY    86  52  31 W5        29.91F
* BEAVER HILL  N/A       80  48  33 SE14       N/A
* CIRCLE       N/A       85  53  33 SW9        N/A
* LINDSAY DVD  N/A       82  47  29 SE6G16     N/A
* NAVAJO       N/A       85  50  30 W12G17     N/A
$$

MTZ028>042-056>058-280000-
SOUTHCENTRAL AND SOUTHEAST MONTANA
CITY           SKY/WX    TMP DP  RH WIND       PRES   REMARKS
BAKER          PTCLDY    79  50  36 SE7       30.04S
BILLINGS       PTCLDY    84  43  24 S6        30.01F
LIVINGSTON     CLEAR     82  39  22 W16       30.09S
MILES CITY     MOCLDY    84  46  26 S14       29.97F
* LAUREL APT   PTCLDY    86  45  24 S8         N/A
* ROUNDUP APT  CLEAR     84  45  26 W7         N/A
* ALZADA       N/A       70  59  68 E9         N/A
* HYSHAM       N/A       83  41  23 SW2G10     N/A
* LAME DEER    N/A       76  50  40 S7G12      N/A
* REED POINT   N/A       85  39  20 W14        N/A
* ROSCOE HILL  N/A       79  31  17 SE7        N/A
$$

REGIONAL REPORTS...DAKOTAS
CITY           SKY/WX    TMP DP  RH WIND       PRES   REMARKS
WILLISTON      CLEAR     82  54  38 S12       29.97F
DICKINSON      CLEAR     77  55  47 S9        30.03S
BEACH          N/A       75  54  48 S10       30.03S
CROSBY         CLEAR     81  54  39 S12       29.97F
TIOGA          CLEAR     77  55  47 S15G22    30.03S
WATFORD CITY   CLEAR     81  54  39 S12       29.98S
BISMARCK       PTCLDY    79  61  54 SE12      30.05F
GRAND FORKS    PTCLDY    73  57  57 S10       30.08F
FARGO          CLOUDY    73  57  57 S12       30.09F
BUFFALO SD     MOCLDY    73  59  62 SE15      30.00F
RAPID CITY     CLOUDY    72  63  73 SE8       30.06F
$$

REGIONAL REPORTS...WYOMING/IDAHO/WASHINGTON
CITY           SKY/WX    TMP DP  RH WIND       PRES   REMARKS
GILLETTE       TSTM      66  57  73 S17       30.11R
SHERIDAN       MOCLDY    81  48  32 N5        30.05S
CODY           CLOUDY    75  45  34 SE9       30.11F
YELLOWSTONE LA PTCLDY    64  37  37 VRB6      30.32S
SALMON         CLEAR     79  46  31 CALM      30.07F
MULLAN PASS    CLEAR     70  39  32 VRB5      30.22S
SAND POINT     CLEAR     82  50  33 E7        29.99F
SPOKANE        FAIR      88  45  22 W10       29.99F

$$



USA.gov is the U.S. government's official web portal to all federal, state and local government web resources and services.